FW9424 Weather Reports


Display with metric or nautical units.
time (UTC)temp
F
wind
direction
speed
MPH
gust
MPH
rain 1hr
in
rain 24hr
in
rain mn
in
humidity
%
barometer
mb
20260506230518 59 0.0 1.0 0.00 0.00 0.00 75 1016.7
20260506225519 59 0.0 0.0 0.00 0.00 0.00 76 1016.7
20260506224538 59 0.0 0.0 0.00 0.00 0.00 77 1016.7
20260506223538 59 0.0 0.0 0.00 0.00 0.00 77 1016.8
20260506222518 59 0.0 0.0 0.00 0.00 0.00 77 1016.8
20260506221519 59 0.0 0.0 0.00 0.00 0.00 78 1016.8
20260506220519 59 22 0.0 2.0 0.00 0.00 0.00 77 1016.9
20260506215518 59 0.0 0.0 0.00 0.00 0.00 77 1016.9
20260506214519 59 13 0.0 2.0 0.00 0.00 0.00 76 1016.8
20260506213518 59 0.0 0.0 0.00 0.00 0.00 75 1016.8
20260506212518 59 0.0 1.0 0.00 0.00 0.00 73 1016.8
20260506211518 60 339 1.0 2.0 0.00 0.00 0.00 72 1016.8
20260506210558 60 0.0 0.0 0.00 0.00 0.00 72 1016.8
20260506205518 60 0.0 0.0 0.00 0.00 0.00 72 1016.8
20260506204540 60 0.0 0.0 0.00 0.00 0.00 71 1016.8
20260506203600 60 0.0 0.0 0.00 0.00 0.00 71 1016.7
20260506202519 60 0.0 0.0 0.00 0.00 0.00 72 1016.7
20260506201518 60 0.0 1.0 0.00 0.00 0.00 71 1016.8
20260506200520 60 71 0.0 2.0 0.00 0.00 0.00 72 1016.8
20260506195518 61 336 1.0 3.0 0.00 0.00 0.00 70 1016.7
20260506194538 61 0.0 0.0 0.00 0.00 0.00 70 1016.6
20260506193516 62 0.0 0.0 0.00 0.00 0.00 69 1016.5
20260506192516 63 0.0 0.0 0.00 0.00 0.00 68 1016.4
20260506191516 62 64 0.0 3.0 0.00 0.00 0.00 68 1016.3
20260506190516 62 83 0.0 1.0 0.00 0.00 0.00 68 1016.2
20260506185537 63 15 0.0 1.0 0.00 0.00 0.00 66 1016.1
20260506184516 64 245 0.0 3.0 0.00 0.00 0.00 66 1016.0
20260506183516 64 318 2.0 4.0 0.00 0.00 0.00 62 1015.9
20260506182516 64 20 1.0 3.0 0.00 0.00 0.00 60 1015.7
20260506181516 65 294 2.0 4.0 0.00 0.00 0.00 60 1015.5
20260506180516 65 311 0.0 3.0 0.00 0.00 0.00 52 1015.4
20260506175516 65 0.0 0.0 0.00 0.00 0.00 51 1015.3
20260506174556 65 0.0 0.0 0.00 0.00 0.00 55 1015.3
20260506173517 66 0.0 0.0 0.00 0.00 0.00 56 1015.3
20260506172516 66 109 0.0 1.0 0.00 0.00 0.00 56 1015.2
20260506171557 67 47 0.0 1.0 0.00 0.00 0.00 53 1015.1
20260506170516 68 85 0.0 1.0 0.00 0.00 0.00 52 1015.1
20260506165517 69 334 1.0 6.0 0.00 0.00 0.00 52 1015.0
20260506164516 68 344 6.0 14.0 0.00 0.00 0.00 55 1015.0
20260506163536 69 350 9.0 12.0 0.00 0.00 0.00 55 1015.0
20260506162516 69 340 7.0 11.0 0.00 0.00 0.00 56 1015.0
20260506161516 70 304 1.0 5.0 0.00 0.00 0.00 54 1015.0
20260506160517 71 282 1.0 4.0 0.00 0.00 0.00 53 1015.0
20260506155516 70 269 2.0 6.0 0.00 0.00 0.00 55 1015.1
20260506154516 70 262 4.0 10.0 0.00 0.00 0.00 55 1015.1
20260506153516 71 255 2.0 8.0 0.00 0.00 0.00 54 1015.1
20260506152516 71 254 3.0 9.0 0.00 0.00 0.00 55 1015.1
20260506151516 71 258 2.0 9.0 0.00 0.00 0.00 55 1015.2
20260506150516 72 276 3.0 9.0 0.00 0.00 0.00 52 1015.2
20260506145536 71 223 1.0 8.0 0.00 0.00 0.00 55 1015.1
20260506144536 71 274 3.0 6.0 0.00 0.00 0.00 55 1015.2
20260506143517 71 238 2.0 8.0 0.00 0.00 0.00 56 1015.3
20260506142516 70 299 4.0 10.0 0.00 0.00 0.00 52 1015.3
20260506141516 70 296 5.0 12.0 0.00 0.00 0.00 55 1015.3
20260506140516 71 296 4.0 10.0 0.00 0.00 0.00 54 1015.2
20260506135516 70 281 5.0 12.0 0.00 0.00 0.00 51 1015.2
20260506134516 70 280 4.0 9.0 0.00 0.00 0.00 59 1015.2
20260506133538 70 285 4.0 10.0 0.00 0.00 0.00 61 1015.2
20260506132516 70 310 4.0 8.0 0.00 0.00 0.00 62 1015.3
20260506131516 69 281 4.0 11.0 0.00 0.00 0.00 65 1015.4
20260506130557 68 266 7.0 11.0 0.00 0.00 0.00 67 1015.4
20260506125536 68 264 8.0 12.0 0.00 0.00 0.00 66 1015.5
20260506124516 68 290 6.0 11.0 0.00 0.00 0.00 60 1015.5
20260506123516 69 272 7.0 12.0 0.00 0.00 0.00 57 1015.6
20260506122516 69 286 7.0 12.0 0.00 0.00 0.00 53 1015.7
20260506121516 69 288 5.0 10.0 0.00 0.00 0.00 51 1015.8
20260506120517 69 276 8.0 13.0 0.00 0.00 0.00 52 1015.8
20260506115516 70 282 5.0 10.0 0.00 0.00 0.00 50 1015.9
20260506114517 70 256 5.0 9.0 0.00 0.00 0.00 49 1015.9
20260506113516 70 270 5.0 10.0 0.00 0.00 0.00 46 1016.0
20260506112518 71 293 4.0 9.0 0.00 0.00 0.00 46 1016.0
20260506111537 70 254 5.0 9.0 0.00 0.00 0.00 47 1016.0
20260506110517 70 261 5.0 9.0 0.00 0.00 0.00 47 1016.0
20260506105517 70 244 3.0 8.0 0.00 0.00 0.00 50 1015.9
20260506104517 70 266 4.0 9.0 0.00 0.00 0.00 49 1015.9
20260506103517 69 265 6.0 10.0 0.00 0.00 0.00 48 1016.0
20260506102517 69 263 7.0 10.0 0.00 0.00 0.00 48 1016.1
20260506101517 69 269 7.0 10.0 0.00 0.00 0.00 49 1016.1
20260506100517 69 263 6.0 13.0 0.00 0.00 0.00 50 1016.2
20260506095517 70 266 7.0 11.0 0.00 0.00 0.00 49 1016.2
20260506094537 70 267 7.0 10.0 0.00 0.00 0.00 48 1016.3
20260506093517 70 236 6.0 10.0 0.00 0.00 0.00 52 1016.3
20260506092517 70 256 5.0 8.0 0.00 0.00 0.00 48 1016.4
20260506091517 70 248 5.0 9.0 0.00 0.00 0.00 49 1016.4
20260506090517 69 238 4.0 9.0 0.00 0.00 0.00 49 1016.4
20260506085517 69 237 4.0 7.0 0.00 0.00 0.00 48 1016.3
20260506084517 68 233 3.0 5.0 0.00 0.00 0.00 52 1016.3
20260506083517 68 266 4.0 6.0 0.00 0.00 0.00 54 1016.3
20260506082517 68 216 2.0 6.0 0.00 0.00 0.00 56 1016.3
20260506081517 67 245 2.0 6.0 0.00 0.00 0.00 56 1016.3
20260506080517 66 224 2.0 5.0 0.00 0.00 0.00 57 1016.3
20260506072517 66 244 2.0 5.0 0.00 0.00 0.00 66 1016.1
20260506071517 65 216 2.0 5.0 0.00 0.00 0.00 67 1016.1
20260506070517 65 233 3.0 6.0 0.00 0.00 0.00 69 1016.1
20260506061517 63 295 1.0 4.0 0.00 0.00 0.00 65 1015.9
20260506060538 64 0.0 0.0 0.00 0.00 0.00 61 1015.8
20260506050517 60 0.0 0.0 0.00 0.00 0.00 69 1016.0
20260506044517 58 0.0 0.0 0.00 0.00 0.00 70 1015.8
20260506043518 57 0.0 0.0 0.00 0.00 0.00 71 1015.8
20260506042517 55 0.0 0.0 0.00 0.00 0.00 72 1015.7
20260506041537 55 0.0 0.0 0.00 0.00 0.00 69 1015.6
20260506040537 54 0.0 0.0 0.00 0.00 0.00 71 1015.6
20260506035517 54 0.0 0.0 0.00 0.00 0.00 71 1015.5
20260506034537 54 0.0 0.0 0.00 0.00 0.00 71 1015.4
20260506033517 55 0.0 0.0 0.00 0.00 0.00 73 1015.4
20260506032517 56 0.0 0.0 0.00 0.00 0.00 71 1015.3
20260506031537 56 0.0 0.0 0.00 0.00 0.00 69 1015.2
20260506030517 55 0.0 0.0 0.00 0.00 0.00 67 1015.0
20260506025517 55 0.0 0.0 0.00 0.00 0.00 68 1014.9
20260506024518 55 0.0 0.0 0.00 0.00 0.00 68 1014.9
20260506023517 55 0.0 0.0 0.00 0.00 0.00 65 1015.0
20260506022518 55 0.0 0.0 0.00 0.00 0.00 67 1015.0
20260506021517 55 0.0 0.0 0.00 0.00 0.00 66 1014.8
20260506020518 56 0.0 0.0 0.00 0.00 0.00 64 1014.7
20260506015517 55 0.0 0.0 0.00 0.00 0.00 65 1014.8
20260506014517 56 0.0 0.0 0.00 0.00 0.00 64 1014.7
20260506013518 56 0.0 0.0 0.00 0.00 0.00 64 1014.7
20260506012537 56 0.0 0.0 0.00 0.00 0.00 63 1014.6
20260506011537 57 0.0 0.0 0.00 0.00 0.00 65 1014.6
20260506010538 57 0.0 0.0 0.00 0.00 0.00 64 1014.7
20260506005517 57 0.0 0.0 0.00 0.00 0.00 68 1014.7
20260506004517 57 0.0 0.0 0.00 0.00 0.00 70 1014.7
20260506003517 57 0.0 0.0 0.00 0.00 0.00 76 1014.7
20260506002517 58 0.0 0.0 0.00 0.00 0.00 77 1014.7
20260506001518 57 0.0 0.0 0.00 0.00 0.00 76 1014.6
20260506000517 57 0.0 0.0 0.00 0.00 0.00 74 1014.7
20260505235517 57 0.0 0.0 0.00 0.00 0.00 71 1014.8
20260505234517 57 0.0 0.0 0.00 0.00 0.00 69 1014.8
20260505233538 58 0.0 0.0 0.00 0.00 0.00 68 1014.9
20260505232517 58 0.0 0.0 0.00 0.00 0.00 68 1014.9
20260505231517 58 344 1.0 2.0 0.00 0.00 0.00 67 1015.0